Date String (YYYY-MM-DD hh:mm:ss) UTC,Instrument flags,absolute air pressure of the measurement (hPa),sample flow rate (lpm),inlet stack bypass flow (lpm),air temperature of the measurement (°C),ambient temperature measured by the external sensor (°C),aerosol sample conditioner tube jacket temperature (°C),OPC LED temperature (°C),internal box temperature (°C),relative humidity of the measurement (%),span deviation,mass concentration of particles derived from Lorenz-Mie calculation of OPC scattering (μg/m³),mass concentration of particles derived from Lorenz-Mie calculation of OPC scattering (μg/m³),mass concentration of particles derived from Lorenz-Mie calculation of OPC scattering (μg/m³)
DateTimeUTC,F1_M11,P_M11,Q1_M11,Q2_M11,T1_M11,T2_M11,T3_M11,T4_M11,T5_M11,U1_M11,ZSPAN_M11,X2_M11,X0_M11,X1_M11
2023-11-19 17:00:00,SystemResetWarning,0822.0,5.00,000.00,024.8,024.0,000.0,033.0,026.2,14.2,0000.0,0001.07,0002.46,0000.84
2023-11-19 17:01:00,SystemResetWarning,0822.0,5.00,000.00,024.8,024.1,000.0,033.0,026.3,14.4,0000.0,0001.12,0002.31,0000.84
2023-11-19 17:02:00,SystemResetWarning,0821.9,5.00,000.00,024.8,024.0,000.0,033.1,026.3,14.4,0000.0,0001.11,0001.94,0000.84
2023-11-19 17:03:00,SystemResetWarning,0822.0,5.00,000.00,024.8,024.0,000.0,033.1,026.2,14.3,0000.0,0001.12,0001.97,0000.84
2023-11-19 17:04:00,SystemResetWarning,0821.9,5.00,000.00,024.8,024.0,000.0,033.1,026.2,14.3,0000.0,0001.15,0002.03,0000.84
2023-11-19 17:05:00,SystemResetWarning,0822.0,5.00,000.00,024.9,024.0,000.0,033.1,026.2,14.1,0000.0,0001.14,0002.01,0000.84
2023-11-19 17:06:00,SystemResetWarning,0822.0,5.00,000.00,024.9,024.0,000.0,033.1,026.2,14.1,0000.0,0001.13,0002.07,0000.83
2023-11-19 17:07:00,SystemResetWarning,0822.0,5.00,000.00,024.9,024.0,000.0,033.1,026.2,14.1,0000.0,0001.15,0002.16,0000.84
2023-11-19 17:08:00,SystemResetWarning,0822.1,5.00,000.00,024.9,024.0,000.0,033.1,026.2,14.1,0000.0,0001.16,0002.12,0000.84
2023-11-19 17:09:00,SystemResetWarning,0822.1,5.00,000.00,024.9,024.0,000.0,033.1,026.2,14.1,0000.0,0001.17,0002.11,0000.84
2023-11-19 17:10:00,SystemResetWarning,0822.0,5.00,000.00,024.9,024.0,000.0,033.1,026.2,14.1,0000.0,0001.16,0001.96,0000.85
2023-11-19 17:11:00,SystemResetWarning,0822.0,5.00,000.00,024.9,024.0,000.0,033.1,026.3,14.2,0000.0,0001.13,0001.86,0000.84
2023-11-19 17:12:00,SystemResetWarning,0821.9,4.99,000.00,024.9,024.0,000.0,033.1,026.3,14.2,0000.0,0001.06,0001.70,0000.84
2023-11-19 17:13:00,SystemResetWarning,0821.9,5.00,000.00,024.9,024.1,000.0,033.1,026.3,14.3,0000.0,0001.04,0001.72,0000.83
2023-11-19 17:14:00,SystemResetWarning,0821.9,5.01,000.00,024.9,024.1,000.0,033.1,026.3,14.3,0000.0,0001.03,0001.75,0000.83
2023-11-19 17:15:00,SystemResetWarning,0822.0,5.00,000.00,024.9,024.1,000.0,033.2,026.3,14.4,0000.0,0001.02,0001.86,0000.83
2023-11-19 17:16:00,SystemResetWarning,0822.0,5.00,000.00,024.9,024.1,000.0,033.2,026.3,14.4,0000.0,0001.06,0002.09,0000.84
2023-11-19 17:17:00,SystemResetWarning,0821.9,5.00,000.00,024.9,024.1,000.0,033.2,026.3,14.4,0000.0,0001.06,0002.01,0000.84
2023-11-19 17:18:00,SystemResetWarning,0821.9,5.00,000.00,024.9,024.1,000.0,033.2,026.3,14.4,0000.0,0001.00,0002.04,0000.83
2023-11-19 17:19:00,SystemResetWarning,0821.9,5.00,000.00,024.9,024.1,000.0,033.2,026.3,14.3,0000.0,0000.97,0003.14,0000.83
2023-11-19 17:20:00,SystemResetWarning,0822.0,5.00,000.00,024.9,024.1,000.0,033.2,026.3,14.5,0000.0,0000.96,0003.12,0000.83
2023-11-19 17:21:00,SystemResetWarning,0821.9,5.00,000.00,025.0,024.1,000.0,033.2,026.3,14.6,0000.0,0000.94,0003.14,0000.83
2023-11-19 17:22:00,SystemResetWarning,0821.9,5.00,000.00,025.0,024.1,000.0,033.2,026.3,15.1,0000.0,0000.93,0003.25,0000.83
2023-11-19 17:23:00,SystemResetWarning,0822.0,5.00,000.00,025.0,024.1,000.0,033.2,026.3,15.4,0000.0,0000.94,0003.27,0000.83
2023-11-19 17:24:00,SystemResetWarning,0822.0,4.99,000.00,025.0,024.1,000.0,033.2,026.4,15.1,0000.0,0000.96,0003.23,0000.84
2023-11-19 17:25:00,SystemResetWarning,0822.0,5.00,000.00,025.0,024.1,000.0,033.2,026.4,15.0,0000.0,0000.99,0003.25,0000.85
2023-11-19 17:26:00,SystemResetWarning,0822.0,5.00,000.00,025.0,024.1,000.0,033.2,026.3,15.1,0000.0,0000.99,0003.18,0000.86
2023-11-19 17:27:00,SystemResetWarning,0822.0,5.00,000.00,025.0,024.2,000.0,033.2,026.3,15.1,0000.0,0000.97,0003.05,0000.86
2023-11-19 17:28:00,SystemResetWarning,0822.0,5.00,000.00,025.0,024.2,000.0,033.2,026.4,15.4,0000.0,0000.99,0003.03,0000.87
2023-11-19 17:29:00,SystemResetWarning,0822.0,5.00,000.00,025.0,024.2,000.0,033.3,026.4,15.5,0000.0,0001.04,0003.10,0000.91
2023-11-19 17:30:00,SystemResetWarning,0821.9,5.01,000.00,025.0,024.2,000.0,033.3,026.4,15.6,0000.0,0001.08,0002.36,0000.94
2023-11-19 17:31:00,SystemResetWarning,0822.0,5.00,000.00,025.0,024.2,000.0,033.3,026.4,15.8,0000.0,0001.13,0001.85,0000.97
2023-11-19 17:32:00,SystemResetWarning,0822.0,5.01,000.00,025.0,024.2,000.0,033.3,026.4,15.9,0000.0,0001.18,0002.81,0000.99
2023-11-19 17:33:00,SystemResetWarning,0822.0,5.00,000.00,025.1,024.2,000.0,033.3,026.4,16.0,0000.0,0001.23,0003.40,0001.01
2023-11-19 17:34:00,SystemResetWarning,0822.0,4.99,000.00,025.1,024.2,000.0,033.3,026.4,16.2,0000.0,0001.31,0003.46,0001.05
2023-11-19 17:35:00,SystemResetWarning,0821.9,5.00,000.00,025.1,024.2,000.0,033.3,026.4,16.0,0000.0,0001.40,0003.59,0001.11
2023-11-19 17:36:00,SystemResetWarning,0821.9,5.00,000.00,025.1,024.2,000.0,033.3,026.4,15.8,0000.0,0001.46,0003.74,0001.16
2023-11-19 17:37:00,SystemResetWarning,0821.9,5.00,000.00,025.1,024.2,000.0,033.3,026.4,15.9,0000.0,0001.52,0003.89,0001.22
2023-11-19 17:38:00,SystemResetWarning,0821.9,5.00,000.00,025.1,024.2,000.0,033.3,026.5,15.9,0000.0,0001.60,0004.09,0001.28
2023-11-19 17:39:00,SystemResetWarning,0821.9,5.00,000.00,025.1,024.2,000.0,033.3,026.5,15.6,0000.0,0001.69,0004.22,0001.35
2023-11-19 17:40:00,SystemResetWarning,0821.8,5.00,000.00,025.1,024.2,000.0,033.3,026.5,15.5,0000.0,0001.76,0004.35,0001.40
2023-11-19 17:41:00,SystemResetWarning,0821.8,5.00,000.00,025.1,024.2,000.0,033.3,026.4,15.4,0000.0,0001.84,0004.58,0001.44
2023-11-19 17:42:00,SystemResetWarning,0821.8,5.00,000.00,025.1,024.2,000.0,033.3,026.4,15.4,0000.0,0001.91,0004.79,0001.49
2023-11-19 17:43:00,SystemResetWarning,0821.8,5.00,000.00,025.1,024.2,000.0,033.4,026.4,15.4,0000.0,0001.95,0003.93,0001.52
2023-11-19 17:44:00,SystemResetWarning,0821.8,5.00,000.00,025.1,024.2,000.0,033.4,026.5,15.3,0000.0,0001.98,0003.43,0001.56
2023-11-19 17:45:00,SystemResetWarning,0821.8,5.01,000.00,025.1,024.2,000.0,033.4,026.5,15.2,0000.0,0002.00,0003.43,0001.59
2023-11-19 17:46:00,SystemResetWarning,0821.7,5.00,000.00,025.1,024.2,000.0,033.4,026.5,15.4,0000.0,0002.01,0003.64,0001.59
2023-11-19 17:47:00,SystemResetWarning,0821.7,5.00,000.00,025.1,024.2,000.0,033.4,026.4,15.5,0000.0,0001.98,0003.54,0001.58
2023-11-19 17:48:00,SystemResetWarning,0821.7,5.00,000.00,025.1,024.2,000.0,033.4,026.4,15.2,0000.0,0001.96,0003.47,0001.56
2023-11-19 17:49:00,SystemResetWarning,0821.7,5.00,000.00,025.1,024.2,000.0,033.4,026.5,15.2,0000.0,0001.97,0003.63,0001.54
2023-11-19 17:50:00,SystemResetWarning,0821.7,5.00,000.00,025.1,024.2,000.0,033.4,026.5,15.2,0000.0,0001.93,0003.68,0001.51
2023-11-19 17:51:00,SystemResetWarning,0821.7,4.99,000.00,025.1,024.2,000.0,033.4,026.4,15.1,0000.0,0001.86,0004.03,0001.46
2023-11-19 17:52:00,SystemResetWarning,0821.7,5.00,000.00,025.1,024.2,000.0,033.4,026.5,15.3,0000.0,0001.82,0004.84,0001.43
2023-11-19 17:53:00,SystemResetWarning,0821.7,4.99,000.00,025.1,024.2,000.0,033.4,026.5,15.1,0000.0,0001.78,0004.96,0001.41
2023-11-19 17:54:00,SystemResetWarning,0821.6,4.99,000.00,025.1,024.2,000.0,033.4,026.5,15.0,0000.0,0001.75,0004.90,0001.39
2023-11-19 17:55:00,SystemResetWarning,0821.7,5.00,000.00,025.1,024.2,000.0,033.4,026.5,14.8,0000.0,0001.72,0004.80,0001.36
2023-11-19 17:56:00,SystemResetWarning,0821.6,5.00,000.00,025.1,024.2,000.0,033.4,026.5,14.7,0000.0,0001.68,0004.77,0001.32
2023-11-19 17:57:00,SystemResetWarning,0821.6,5.01,000.00,025.1,024.3,000.0,033.4,026.5,15.1,0000.0,0001.63,0004.61,0001.29
2023-11-19 17:58:00,SystemResetWarning,0821.6,5.01,000.00,025.1,024.3,000.0,033.4,026.5,14.7,0000.0,0001.61,0005.85,0001.30
2023-11-19 17:59:00,SystemResetWarning,0821.6,5.00,000.00,025.1,024.3,000.0,033.4,026.5,14.4,0000.0,0001.63,0005.97,0001.29
